Terminal Aerodrome Forecast
Issued by NWS

Home | Current Version | Previous Version | Graphics & Text | Print | Product List | Glossary On
Versions: 1 2 3 4 5 6 7 8 9 10 11 12 13 14 15 16 17 18 19 20 21
937
FTUS43 KABR 200334 AAA
TAFPIR
TAF AMD
KPIR 200334Z 2004/2024 VRB06KT 1/4SM FZFG VV001
     FM201300 VRB03KT 1 1/2SM BR VV002
     FM201500 VRB03KT 2SM BR OVC003
     FM201800 19004KT P6SM BKN070=

USA.gov is the U.S. government's official web portal to all federal, state and local government web resources and services.